Time,TemperatureF,DewpointF,PressureIn,WindDirection,WindDirectionDegrees,WindSpeedMPH,WindSpeedGustMPH,Humidity,HourlyPrecipIn,Conditions,Clouds,dailyrainin,SoftwareType,DateUTC
2013-07-16 00:00:00,76.1,73.9,30.21,ESE,116,2.0,8.0,93,0.00,,,0.00,Wunderground v.1.15,2013-07-16 05:00:00,
2013-07-16 00:02:00,76.2,74.0,30.21,ESE,117,2.0,8.0,93,0.00,,,0.00,Wunderground v.1.15,2013-07-16 05:02:00,
2013-07-16 00:04:00,76.3,74.1,30.21,SE,124,2.0,8.0,93,0.00,,,0.00,Wunderground v.1.15,2013-07-16 05:04:00,
2013-07-16 00:08:00,76.5,74.3,30.21,ESE,113,3.0,8.0,93,0.00,,,0.00,Wunderground v.1.15,2013-07-16 05:08:00,
2013-07-16 00:10:00,76.6,74.4,30.21,ESE,117,3.0,8.0,93,0.00,,,0.00,Wunderground v.1.15,2013-07-16 05:10:00,
2013-07-16 00:12:00,76.6,74.4,30.21,ESE,115,3.0,8.0,93,0.00,,,0.00,Wunderground v.1.15,2013-07-16 05:12:00,
2013-07-16 00:14:00,76.8,74.6,30.21,ESE,117,3.0,8.0,93,0.00,,,0.00,Wunderground v.1.15,2013-07-16 05:14:00,
2013-07-16 00:18:00,77.2,75.0,30.21,ESE,117,4.0,8.0,93,0.00,,,0.00,Wunderground v.1.15,2013-07-16 05:18:00,
2013-07-16 00:20:00,77.3,74.8,30.21,SE,131,4.0,8.0,92,0.00,,,0.00,Wunderground v.1.15,2013-07-16 05:20:00,
2013-07-16 00:26:00,77.5,75.0,30.21,SE,127,4.0,8.0,92,0.00,,,0.00,Wunderground v.1.15,2013-07-16 05:26:00,
2013-07-16 00:28:00,77.5,75.0,30.21,SE,129,4.0,8.0,92,0.00,,,0.00,Wunderground v.1.15,2013-07-16 05:28:00,
2013-07-16 00:32:00,77.5,75.0,30.21,SE,124,4.0,8.0,92,0.00,,,0.00,Wunderground v.1.15,2013-07-16 05:32:00,
2013-07-16 00:34:00,77.4,74.9,30.21,ESE,122,4.0,8.0,92,0.00,,,0.00,Wunderground v.1.15,2013-07-16 05:34:00,
2013-07-16 00:36:00,77.4,74.9,30.21,SE,131,4.0,8.0,92,0.00,,,0.00,Wunderground v.1.15,2013-07-16 05:36:00,
2013-07-16 00:38:00,77.3,74.8,30.21,SE,133,4.0,8.0,92,0.00,,,0.00,Wunderground v.1.15,2013-07-16 05:38:00,
2013-07-16 00:40:00,77.3,74.8,30.21,SE,127,4.0,8.0,92,0.00,,,0.00,Wunderground v.1.15,2013-07-16 05:40:00,
2013-07-16 00:44:00,77.2,74.7,30.21,SE,133,4.0,8.0,92,0.00,,,0.00,Wunderground v.1.15,2013-07-16 05:44:00,
2013-07-16 00:46:00,77.1,74.6,30.21,ESE,120,4.0,8.0,92,0.00,,,0.00,Wunderground v.1.15,2013-07-16 05:46:00,
2013-07-16 00:50:00,77.0,74.8,30.21,SE,124,4.0,4.0,93,0.00,,,0.00,Wunderground v.1.15,2013-07-16 05:50:00,
2013-07-16 00:52:00,76.9,74.7,30.21,ESE,122,3.0,8.0,93,0.00,,,0.00,Wunderground v.1.15,2013-07-16 05:52:00,
2013-07-16 00:58:00,76.8,74.6,30.21,SE,129,3.0,8.0,93,0.00,,,0.00,Wunderground v.1.15,2013-07-16 05:58:00,
2013-07-16 01:00:00,76.8,74.6,30.21,SE,131,3.0,3.0,93,0.00,,,0.00,Wunderground v.1.15,2013-07-16 06:00:00,
2013-07-16 01:02:00,76.8,74.6,30.21,SE,131,3.0,8.0,93,0.00,,,0.00,Wunderground v.1.15,2013-07-16 06:02:00,
2013-07-16 01:04:00,76.7,74.5,30.21,SE,124,3.0,8.0,93,0.00,,,0.00,Wunderground v.1.15,2013-07-16 06:04:00,
2013-07-16 01:08:00,76.7,74.5,30.21,ESE,120,3.0,8.0,93,0.00,,,0.00,Wunderground v.1.15,2013-07-16 06:08:00,
2013-07-16 01:12:00,76.6,74.4,30.20,SE,124,2.0,8.0,93,0.00,,,0.00,Wunderground v.1.15,2013-07-16 06:12:00,
2013-07-16 01:14:00,76.6,74.4,30.20,SE,136,2.0,8.0,93,0.00,,,0.00,Wunderground v.1.15,2013-07-16 06:14:00,
2013-07-16 01:18:00,76.5,74.6,30.20,SE,133,2.0,8.0,94,0.00,,,0.00,Wunderground v.1.15,2013-07-16 06:18:00,
2013-07-16 01:22:00,76.4,74.5,30.20,SE,131,3.0,8.0,94,0.00,,,0.00,Wunderground v.1.15,2013-07-16 06:22:00,
2013-07-16 01:24:00,76.4,74.5,30.20,SE,124,3.0,8.0,94,0.00,,,0.00,Wunderground v.1.15,2013-07-16 06:24:00,
2013-07-16 01:26:00,76.3,74.4,30.20,SE,126,3.0,8.0,94,0.00,,,0.00,Wunderground v.1.15,2013-07-16 06:26:00,
2013-07-16 01:30:00,76.3,74.4,30.20,SE,124,3.0,8.0,94,0.00,,,0.00,Wunderground v.1.15,2013-07-16 06:30:00,
2013-07-16 01:34:00,76.3,74.4,30.20,ESE,120,3.0,8.0,94,0.00,,,0.00,Wunderground v.1.15,2013-07-16 06:34:00,
2013-07-16 01:36:00,76.3,74.4,30.20,SE,125,4.0,8.0,94,0.00,,,0.00,Wunderground v.1.15,2013-07-16 06:36:00,
2013-07-16 01:38:00,76.3,74.4,30.20,ESE,120,4.0,8.0,94,0.00,,,0.00,Wunderground v.1.15,2013-07-16 06:38:00,
2013-07-16 01:40:00,76.3,74.4,30.20,ESE,120,4.0,8.0,94,0.00,,,0.00,Wunderground v.1.15,2013-07-16 06:40:00,
2013-07-16 01:42:00,76.4,74.2,30.20,SE,132,4.0,8.0,93,0.00,,,0.00,Wunderground v.1.15,2013-07-16 06:42:00,
2013-07-16 01:44:00,76.4,74.2,30.20,ESE,117,4.0,8.0,93,0.00,,,0.00,Wunderground v.1.15,2013-07-16 06:44:00,
2013-07-16 01:48:00,76.3,74.1,30.20,ESE,103,4.0,8.0,93,0.00,,,0.00,Wunderground v.1.15,2013-07-16 06:48:00,
2013-07-16 01:50:00,76.3,74.1,30.20,East,97,4.0,8.0,93,0.00,,,0.00,Wunderground v.1.15,2013-07-16 06:50:00,
2013-07-16 01:52:00,76.3,74.1,30.20,SE,124,4.0,8.0,93,0.00,,,0.00,Wunderground v.1.15,2013-07-16 06:52:00,
2013-07-16 01:56:00,76.3,74.4,30.20,ESE,117,4.0,8.0,94,0.00,,,0.00,Wunderground v.1.15,2013-07-16 06:56:00,
2013-07-16 01:58:00,76.3,74.1,30.20,SE,126,4.0,8.0,93,0.00,,,0.00,Wunderground v.1.15,2013-07-16 06:58:00,
2013-07-16 02:00:00,76.3,74.1,30.20,ESE,112,4.0,4.0,93,0.00,,,0.00,Wunderground v.1.15,2013-07-16 07:00:00,
2013-07-16 02:06:00,76.2,74.0,30.20,ESE,115,4.0,8.0,93,0.00,,,0.00,Wunderground v.1.15,2013-07-16 07:06:00,
2013-07-16 02:08:00,76.2,74.3,30.20,ESE,114,4.0,8.0,94,0.00,,,0.00,Wunderground v.1.15,2013-07-16 07:08:00,
2013-07-16 02:10:00,76.2,74.3,30.20,ESE,120,4.0,4.0,94,0.00,,,0.00,Wunderground v.1.15,2013-07-16 07:10:00,
2013-07-16 02:12:00,76.2,74.0,30.20,ESE,114,4.0,8.0,93,0.00,,,0.00,Wunderground v.1.15,2013-07-16 07:12:00,
2013-07-16 02:18:00,76.1,73.9,30.20,ESE,122,3.0,8.0,93,0.00,,,0.00,Wunderground v.1.15,2013-07-16 07:18:00,
2013-07-16 02:22:00,76.1,73.9,30.20,SE,124,2.0,8.0,93,0.00,,,0.00,Wunderground v.1.15,2013-07-16 07:22:00,
2013-07-16 02:24:00,76.0,73.8,30.20,ESE,117,2.0,8.0,93,0.00,,,0.00,Wunderground v.1.15,2013-07-16 07:24:00,
2013-07-16 02:28:00,75.9,74.0,30.20,SE,127,2.0,8.0,94,0.00,,,0.00,Wunderground v.1.15,2013-07-16 07:28:00,
2013-07-16 02:32:00,75.8,73.9,30.20,SE,124,2.0,8.0,94,0.00,,,0.00,Wunderground v.1.15,2013-07-16 07:32:00,
2013-07-16 02:34:00,75.8,73.9,30.20,ESE,119,2.0,8.0,94,0.00,,,0.00,Wunderground v.1.15,2013-07-16 07:34:00,
2013-07-16 02:36:00,75.7,73.8,30.20,ESE,115,2.0,8.0,94,0.00,,,0.00,Wunderground v.1.15,2013-07-16 07:36:00,
2013-07-16 02:38:00,75.7,73.8,30.19,ESE,108,2.0,8.0,94,0.00,,,0.00,Wunderground v.1.15,2013-07-16 07:38:00,
2013-07-16 02:42:00,75.6,73.8,30.20,ESE,108,3.0,8.0,94,0.00,,,0.00,Wunderground v.1.15,2013-07-16 07:42:00,
2013-07-16 02:44:00,75.5,73.7,30.20,ESE,115,3.0,8.0,94,0.00,,,0.00,Wunderground v.1.15,2013-07-16 07:44:00,
2013-07-16 02:46:00,75.5,73.7,30.20,ESE,115,3.0,8.0,94,0.00,,,0.00,Wunderground v.1.15,2013-07-16 07:46:00,
2013-07-16 02:48:00,75.5,73.7,30.20,ESE,113,3.0,8.0,94,0.00,,,0.00,Wunderground v.1.15,2013-07-16 07:48:00,
2013-07-16 02:52:00,75.5,74.0,30.20,SE,124,3.0,8.0,95,0.00,,,0.00,Wunderground v.1.15,2013-07-16 07:52:00,
2013-07-16 02:54:00,75.5,74.0,30.20,ESE,108,3.0,8.0,95,0.00,,,0.00,Wunderground v.1.15,2013-07-16 07:54:00,
2013-07-16 02:56:00,75.5,74.0,30.19,ESE,119,3.0,8.0,95,0.00,,,0.00,Wunderground v.1.15,2013-07-16 07:56:00,
2013-07-16 02:58:00,75.5,74.0,30.19,ESE,114,3.0,8.0,95,0.00,,,0.00,Wunderground v.1.15,2013-07-16 07:58:00,
2013-07-16 03:02:00,75.5,74.0,30.19,ESE,121,3.0,8.0,95,0.00,,,0.00,Wunderground v.1.15,2013-07-16 08:02:00,
2013-07-16 03:06:00,75.5,74.0,30.20,ESE,115,3.0,8.0,95,0.00,,,0.00,Wunderground v.1.15,2013-07-16 08:06:00,
2013-07-16 03:08:00,75.4,73.9,30.19,ESE,112,3.0,8.0,95,0.00,,,0.00,Wunderground v.1.15,2013-07-16 08:08:00,
2013-07-16 03:10:00,75.5,74.0,30.20,ESE,119,3.0,8.0,95,0.00,,,0.00,Wunderground v.1.15,2013-07-16 08:10:00,
2013-07-16 03:14:00,75.5,74.0,30.20,SE,127,3.0,8.0,95,0.00,,,0.00,Wunderground v.1.15,2013-07-16 08:14:00,
2013-07-16 03:16:00,75.5,74.0,30.19,SE,128,3.0,8.0,95,0.00,,,0.00,Wunderground v.1.15,2013-07-16 08:16:00,
2013-07-16 03:18:00,75.6,74.1,30.19,SE,124,4.0,8.0,95,0.00,,,0.00,Wunderground v.1.15,2013-07-16 08:18:00,
2013-07-16 03:20:00,75.6,74.1,30.19,ESE,119,4.0,4.0,95,0.00,,,0.00,Wunderground v.1.15,2013-07-16 08:20:00,
2013-07-16 03:22:00,75.6,73.8,30.19,SE,129,4.0,8.0,94,0.00,,,0.00,Wunderground v.1.15,2013-07-16 08:22:00,
2013-07-16 03:26:00,75.5,73.7,30.19,SE,124,3.0,8.0,94,0.00,,,0.00,Wunderground v.1.15,2013-07-16 08:26:00,
2013-07-16 03:32:00,75.3,73.8,30.20,SSE,154,3.0,8.0,95,0.00,,,0.00,Wunderground v.1.15,2013-07-16 08:32:00,
2013-07-16 03:34:00,75.2,73.7,30.20,SE,124,2.0,8.0,95,0.00,,,0.00,Wunderground v.1.15,2013-07-16 08:34:00,
2013-07-16 03:38:00,75.1,73.6,30.20,SE,133,1.0,8.0,95,0.00,,,0.00,Wunderground v.1.15,2013-07-16 08:38:00,
2013-07-16 03:40:00,75.1,73.6,30.20,SSE,163,1.0,1.0,95,0.00,,,0.00,Wunderground v.1.15,2013-07-16 08:40:00,
2013-07-16 03:42:00,75.0,73.5,30.20,South,181,1.0,2.0,95,0.00,,,0.00,Wunderground v.1.15,2013-07-16 08:42:00,
2013-07-16 03:46:00,74.8,73.3,30.20,SSE,167,1.0,8.0,95,0.00,,,0.00,Wunderground v.1.15,2013-07-16 08:46:00,
2013-07-16 03:48:00,74.7,73.2,30.20,South,176,2.0,8.0,95,0.00,,,0.00,Wunderground v.1.15,2013-07-16 08:48:00,
2013-07-16 03:50:00,74.6,73.1,30.20,SSW,195,2.0,8.0,95,0.00,,,0.00,Wunderground v.1.15,2013-07-16 08:50:00,
2013-07-16 03:52:00,74.6,73.1,30.20,South,170,2.0,8.0,95,0.00,,,0.00,Wunderground v.1.15,2013-07-16 08:52:00,
2013-07-16 03:54:00,74.5,73.3,30.20,SSW,194,2.0,8.0,96,0.00,,,0.00,Wunderground v.1.15,2013-07-16 08:54:00,
2013-07-16 03:56:00,74.6,73.4,30.20,South,181,2.0,8.0,96,0.00,,,0.00,Wunderground v.1.15,2013-07-16 08:56:00,
2013-07-16 03:58:00,74.6,73.4,30.20,South,186,2.0,8.0,96,0.00,,,0.00,Wunderground v.1.15,2013-07-16 08:58:00,
2013-07-16 04:02:00,74.7,73.5,30.20,SSE,163,2.0,8.0,96,0.00,,,0.00,Wunderground v.1.15,2013-07-16 09:02:00,
2013-07-16 04:04:00,74.7,73.5,30.20,South,191,2.0,8.0,96,0.00,,,0.00,Wunderground v.1.15,2013-07-16 09:04:00,
2013-07-16 04:06:00,74.7,73.5,30.20,SSW,195,2.0,8.0,96,0.00,,,0.00,Wunderground v.1.15,2013-07-16 09:06:00,
2013-07-16 04:08:00,74.6,73.1,30.20,SSW,195,2.0,8.0,95,0.00,,,0.00,Wunderground v.1.15,2013-07-16 09:08:00,
2013-07-16 04:10:00,74.6,73.1,30.20,SSW,195,1.0,1.0,95,0.00,,,0.00,Wunderground v.1.15,2013-07-16 09:10:00,
2013-07-16 04:12:00,74.5,73.0,30.20,SSW,195,1.0,8.0,95,0.00,,,0.00,Wunderground v.1.15,2013-07-16 09:12:00,
2013-07-16 04:14:00,74.4,72.9,30.20,SSW,195,0.0,8.0,95,0.00,,,0.00,Wunderground v.1.15,2013-07-16 09:14:00,
2013-07-16 04:18:00,74.4,73.2,30.21,SE,140,0.0,8.0,96,0.00,,,0.00,Wunderground v.1.15,2013-07-16 09:18:00,
2013-07-16 04:20:00,74.4,73.2,30.21,SE,140,1.0,8.0,96,0.00,,,0.00,Wunderground v.1.15,2013-07-16 09:20:00,
2013-07-16 04:22:00,74.4,73.2,30.21,SE,134,1.0,8.0,96,0.00,,,0.00,Wunderground v.1.15,2013-07-16 09:22:00,
2013-07-16 04:24:00,74.4,73.2,30.21,SE,139,1.0,8.0,96,0.00,,,0.00,Wunderground v.1.15,2013-07-16 09:24:00,
2013-07-16 04:26:00,74.3,73.1,30.21,SE,139,1.0,8.0,96,0.00,,,0.00,Wunderground v.1.15,2013-07-16 09:26:00,
2013-07-16 04:34:00,74.2,73.0,30.21,SE,143,0.0,8.0,96,0.00,,,0.00,Wunderground v.1.15,2013-07-16 09:34:00,
2013-07-16 04:36:00,74.2,73.0,30.21,SE,143,0.0,8.0,96,0.00,,,0.00,Wunderground v.1.15,2013-07-16 09:36:00,
2013-07-16 04:40:00,74.2,73.3,30.21,SE,143,0.0,8.0,97,0.00,,,0.00,Wunderground v.1.15,2013-07-16 09:40:00,
2013-07-16 04:42:00,74.1,72.9,30.21,SE,143,1.0,8.0,96,0.00,,,0.00,Wunderground v.1.15,2013-07-16 09:42:00,
2013-07-16 04:44:00,74.1,72.9,30.21,SE,142,1.0,1.0,96,0.00,,,0.00,Wunderground v.1.15,2013-07-16 09:44:00,
2013-07-16 04:48:00,74.0,73.1,30.21,SE,142,0.0,8.0,97,0.00,,,0.00,Wunderground v.1.15,2013-07-16 09:48:00,
2013-07-16 04:50:00,74.0,73.1,30.21,SE,142,0.0,8.0,97,0.00,,,0.00,Wunderground v.1.15,2013-07-16 09:50:00,
2013-07-16 04:54:00,74.0,73.1,30.21,SE,143,0.0,8.0,97,0.00,,,0.00,Wunderground v.1.15,2013-07-16 09:54:00,
2013-07-16 04:56:00,73.9,73.0,30.21,SE,143,0.0,8.0,97,0.00,,,0.00,Wunderground v.1.15,2013-07-16 09:56:00,
2013-07-16 04:58:00,73.9,73.0,30.21,SE,143,0.0,8.0,97,0.00,,,0.00,Wunderground v.1.15,2013-07-16 09:58:00,
2013-07-16 05:02:00,73.9,73.0,30.21,SE,143,0.0,8.0,97,0.00,,,0.00,Wunderground v.1.15,2013-07-16 10:02:00,
2013-07-16 05:04:00,73.9,73.0,30.22,SE,141,0.0,8.0,97,0.00,,,0.00,Wunderground v.1.15,2013-07-16 10:04:00,
2013-07-16 05:06:00,73.8,72.9,30.22,SE,143,0.0,8.0,97,0.00,,,0.00,Wunderground v.1.15,2013-07-16 10:06:00,
2013-07-16 05:10:00,73.8,72.9,30.22,SE,141,0.0,8.0,97,0.00,,,0.00,Wunderground v.1.15,2013-07-16 10:10:00,
2013-07-16 05:12:00,73.7,72.8,30.22,SE,140,1.0,8.0,97,0.00,,,0.00,Wunderground v.1.15,2013-07-16 10:12:00,
2013-07-16 05:14:00,73.7,72.8,30.22,SE,139,1.0,8.0,97,0.00,,,0.00,Wunderground v.1.15,2013-07-16 10:14:00,
2013-07-16 05:16:00,73.8,72.9,30.22,SE,140,1.0,8.0,97,0.00,,,0.00,Wunderground v.1.15,2013-07-16 10:16:00,
2013-07-16 05:18:00,73.7,72.8,30.22,SE,139,1.0,8.0,97,0.00,,,0.00,Wunderground v.1.15,2013-07-16 10:18:00,
2013-07-16 05:20:00,73.7,72.8,30.22,SE,139,1.0,1.0,97,0.00,,,0.00,Wunderground v.1.15,2013-07-16 10:20:00,
2013-07-16 05:22:00,73.7,72.8,30.22,SE,140,0.0,8.0,97,0.00,,,0.00,Wunderground v.1.15,2013-07-16 10:22:00,
2013-07-16 05:26:00,73.7,72.8,30.22,SE,140,0.0,8.0,97,0.00,,,0.00,Wunderground v.1.15,2013-07-16 10:26:00,
2013-07-16 05:28:00,73.8,73.2,30.22,SE,140,0.0,8.0,98,0.00,,,0.00,Wunderground v.1.15,2013-07-16 10:28:00,
2013-07-16 05:30:00,73.8,73.2,30.22,SE,137,0.0,8.0,98,0.00,,,0.00,Wunderground v.1.15,2013-07-16 10:30:00,
2013-07-16 05:32:00,73.9,73.3,30.22,SE,137,0.0,8.0,98,0.00,,,0.00,Wunderground v.1.15,2013-07-16 10:32:00,
2013-07-16 05:36:00,73.9,73.0,30.22,SE,136,0.0,8.0,97,0.00,,,0.00,Wunderground v.1.15,2013-07-16 10:36:00,
2013-07-16 05:38:00,73.9,73.0,30.22,SE,131,1.0,8.0,97,0.00,,,0.00,Wunderground v.1.15,2013-07-16 10:38:00,
2013-07-16 05:40:00,73.9,73.0,30.22,SE,131,1.0,8.0,97,0.00,,,0.00,Wunderground v.1.15,2013-07-16 10:40:00,
2013-07-16 05:42:00,73.9,73.0,30.22,SE,131,1.0,8.0,97,0.00,,,0.00,Wunderground v.1.15,2013-07-16 10:42:00,
2013-07-16 05:44:00,73.9,73.0,30.23,SE,131,1.0,8.0,97,0.00,,,0.00,Wunderground v.1.15,2013-07-16 10:44:00,
2013-07-16 05:46:00,73.9,73.0,30.23,SE,131,1.0,8.0,97,0.00,,,0.00,Wunderground v.1.15,2013-07-16 10:46:00,
2013-07-16 05:48:00,73.8,72.9,30.23,SE,131,1.0,8.0,97,0.00,,,0.00,Wunderground v.1.15,2013-07-16 10:48:00,
2013-07-16 05:50:00,73.9,73.0,30.23,SE,131,0.0,8.0,97,0.00,,,0.00,Wunderground v.1.15,2013-07-16 10:50:00,
2013-07-16 05:52:00,73.9,73.0,30.23,SE,131,0.0,8.0,97,0.00,,,0.00,Wunderground v.1.15,2013-07-16 10:52:00,
2013-07-16 05:54:00,74.0,73.1,30.23,SE,129,0.0,8.0,97,0.00,,,0.00,Wunderground v.1.15,2013-07-16 10:54:00,
2013-07-16 05:58:00,74.2,73.3,30.23,SE,130,1.0,8.0,97,0.00,,,0.00,Wunderground v.1.15,2013-07-16 10:58:00,
2013-07-16 06:00:00,74.2,73.3,30.23,ESE,123,2.0,8.0,97,0.00,,,0.00,Wunderground v.1.15,2013-07-16 11:00:00,
2013-07-16 06:02:00,74.3,73.4,30.23,SE,125,2.0,8.0,97,0.00,,,0.00,Wunderground v.1.15,2013-07-16 11:02:00,
2013-07-16 06:04:00,74.3,73.4,30.23,SE,129,2.0,8.0,97,0.00,,,0.00,Wunderground v.1.15,2013-07-16 11:04:00,
2013-07-16 06:06:00,74.4,73.5,30.23,SE,124,2.0,8.0,97,0.00,,,0.00,Wunderground v.1.15,2013-07-16 11:06:00,
2013-07-16 06:10:00,74.7,73.8,30.23,SE,131,2.0,2.0,97,0.00,,,0.00,Wunderground v.1.15,2013-07-16 11:10:00,
2013-07-16 06:12:00,74.8,73.9,30.23,SE,131,1.0,8.0,97,0.00,,,0.00,Wunderground v.1.15,2013-07-16 11:12:00,
2013-07-16 06:16:00,75.1,73.9,30.23,SE,130,1.0,8.0,96,0.00,,,0.00,Wunderground v.1.15,2013-07-16 11:16:00,
2013-07-16 06:20:00,75.4,74.2,30.23,SE,134,1.0,8.0,96,0.00,,,0.00,Wunderground v.1.15,2013-07-16 11:20:00,
2013-07-16 06:26:00,75.9,74.4,30.24,SE,134,1.0,8.0,95,0.00,,,0.00,Wunderground v.1.15,2013-07-16 11:26:00,
2013-07-16 06:28:00,76.2,74.7,30.24,SE,134,1.0,8.0,95,0.00,,,0.00,Wunderground v.1.15,2013-07-16 11:28:00,
2013-07-16 06:32:00,76.6,75.1,30.24,SE,133,1.0,8.0,95,0.00,,,0.00,Wunderground v.1.15,2013-07-16 11:32:00,
2013-07-16 06:34:00,76.8,74.9,30.24,SE,131,1.0,8.0,94,0.00,,,0.00,Wunderground v.1.15,2013-07-16 11:34:00,
2013-07-16 06:36:00,76.9,74.7,30.24,ESE,121,1.0,8.0,93,0.00,,,0.00,Wunderground v.1.15,2013-07-16 11:36:00,
2013-07-16 06:38:00,76.9,74.7,30.24,SE,133,1.0,8.0,93,0.00,,,0.00,Wunderground v.1.15,2013-07-16 11:38:00,
2013-07-16 06:42:00,77.1,75.2,30.24,SE,127,2.0,8.0,94,0.00,,,0.00,Wunderground v.1.15,2013-07-16 11:42:00,
2013-07-16 06:44:00,77.2,75.0,30.24,SE,136,2.0,8.0,93,0.00,,,0.00,Wunderground v.1.15,2013-07-16 11:44:00,
2013-07-16 06:48:00,77.7,75.5,30.24,SE,144,1.0,8.0,93,0.00,,,0.00,Wunderground v.1.15,2013-07-16 11:48:00,
2013-07-16 06:50:00,77.8,75.6,30.24,SE,124,1.0,8.0,93,0.00,,,0.00,Wunderground v.1.15,2013-07-16 11:50:00,
2013-07-16 06:52:00,77.9,75.4,30.24,SE,127,2.0,8.0,92,0.00,,,0.00,Wunderground v.1.15,2013-07-16 11:52:00,
2013-07-16 06:56:00,77.7,75.2,30.24,SE,137,2.0,8.0,92,0.00,,,0.00,Wunderground v.1.15,2013-07-16 11:56:00,
2013-07-16 06:58:00,77.7,75.2,30.24,SE,131,3.0,8.0,92,0.00,,,0.00,Wunderground v.1.15,2013-07-16 11:58:00,
2013-07-16 07:00:00,77.7,75.2,30.24,SE,140,3.0,8.0,92,0.00,,,0.00,Wunderground v.1.15,2013-07-16 12:00:00,
2013-07-16 07:02:00,77.8,75.3,30.24,SE,124,3.0,8.0,92,0.00,,,0.00,Wunderground v.1.15,2013-07-16 12:02:00,
2013-07-16 07:04:00,77.9,75.4,30.24,SE,139,3.0,8.0,92,0.00,,,0.00,Wunderground v.1.15,2013-07-16 12:04:00,
2013-07-16 07:06:00,78.0,75.5,30.24,SE,128,3.0,8.0,92,0.00,,,0.00,Wunderground v.1.15,2013-07-16 12:06:00,
2013-07-16 07:10:00,78.3,75.8,30.24,SE,129,3.0,3.0,92,0.00,,,0.00,Wunderground v.1.15,2013-07-16 12:10:00,
2013-07-16 07:12:00,78.5,76.0,30.24,SSE,147,2.0,8.0,92,0.00,,,0.00,Wunderground v.1.15,2013-07-16 12:12:00,
2013-07-16 07:14:00,78.7,75.8,30.24,SE,134,3.0,8.0,91,0.00,,,0.00,Wunderground v.1.15,2013-07-16 12:14:00,
2013-07-16 07:20:00,79.4,75.9,30.25,SE,143,2.0,8.0,89,0.00,,,0.00,Wunderground v.1.15,2013-07-16 12:20:00,
2013-07-16 07:22:00,79.5,76.0,30.25,South,174,2.0,8.0,89,0.00,,,0.00,Wunderground v.1.15,2013-07-16 12:22:00,
2013-07-16 07:24:00,79.8,76.3,30.25,ESE,113,2.0,8.0,89,0.00,,,0.00,Wunderground v.1.15,2013-07-16 12:24:00,
2013-07-16 07:28:00,80.2,76.3,30.25,SE,128,2.0,8.0,88,0.00,,,0.00,Wunderground v.1.15,2013-07-16 12:28:00,
2013-07-16 07:30:00,80.4,76.5,30.25,SSE,148,2.0,2.0,88,0.00,,,0.00,Wunderground v.1.15,2013-07-16 12:30:00,
2013-07-16 07:32:00,80.7,76.8,30.25,South,189,2.0,3.0,88,0.00,,,0.00,Wunderground v.1.15,2013-07-16 12:32:00,
2013-07-16 07:36:00,81.2,77.0,30.25,South,169,2.0,8.0,87,0.00,,,0.00,Wunderground v.1.15,2013-07-16 12:36:00,
2013-07-16 07:40:00,81.5,76.9,30.25,South,180,2.0,8.0,86,0.00,,,0.00,Wunderground v.1.15,2013-07-16 12:40:00,
2013-07-16 07:42:00,81.5,76.9,30.25,South,169,2.0,8.0,86,0.00,,,0.00,Wunderground v.1.15,2013-07-16 12:42:00,
2013-07-16 07:44:00,81.4,76.8,30.25,South,170,3.0,8.0,86,0.00,,,0.00,Wunderground v.1.15,2013-07-16 12:44:00,
2013-07-16 07:48:00,81.9,77.3,30.25,South,190,2.0,8.0,86,0.00,,,0.00,Wunderground v.1.15,2013-07-16 12:48:00,
2013-07-16 07:50:00,82.0,77.0,30.25,SSE,166,3.0,3.0,85,0.00,,,0.00,Wunderground v.1.15,2013-07-16 12:50:00,
2013-07-16 07:52:00,82.2,77.2,30.25,South,180,3.0,8.0,85,0.00,,,0.00,Wunderground v.1.15,2013-07-16 12:52:00,
2013-07-16 07:56:00,82.1,76.8,30.25,SSE,158,3.0,8.0,84,0.00,,,0.00,Wunderground v.1.15,2013-07-16 12:56:00,
2013-07-16 07:58:00,82.0,77.0,30.25,SSE,167,3.0,8.0,85,0.00,,,0.00,Wunderground v.1.15,2013-07-16 12:58:00,
2013-07-16 08:02:00,82.1,77.1,30.25,South,177,4.0,5.0,85,0.00,,,0.00,Wunderground v.1.15,2013-07-16 13:02:00,
2013-07-16 08:04:00,82.1,77.1,30.25,SSE,165,4.0,8.0,85,0.00,,,0.00,Wunderground v.1.15,2013-07-16 13:04:00,
2013-07-16 08:06:00,82.0,77.0,30.25,SSW,201,4.0,8.0,85,0.00,,,0.00,Wunderground v.1.15,2013-07-16 13:06:00,
2013-07-16 08:08:00,82.1,77.5,30.25,SSW,204,4.0,8.0,86,0.00,,,0.00,Wunderground v.1.15,2013-07-16 13:08:00,
2013-07-16 08:10:00,82.1,77.5,30.25,SSE,160,4.0,4.0,86,0.00,,,0.00,Wunderground v.1.15,2013-07-16 13:10:00,
2013-07-16 08:12:00,82.1,77.1,30.25,SSE,155,4.0,5.0,85,0.00,,,0.00,Wunderground v.1.15,2013-07-16 13:12:00,
2013-07-16 08:14:00,82.1,77.5,30.25,South,176,4.0,8.0,86,0.00,,,0.00,Wunderground v.1.15,2013-07-16 13:14:00,
2013-07-16 08:20:00,82.1,77.1,30.25,South,185,5.0,8.0,85,0.00,,,0.00,Wunderground v.1.15,2013-07-16 13:20:00,
2013-07-16 08:24:00,82.5,77.5,30.25,South,184,5.0,8.0,85,0.00,,,0.00,Wunderground v.1.15,2013-07-16 13:24:00,
2013-07-16 08:30:00,82.6,77.3,30.25,SSE,166,4.0,8.0,84,0.00,,,0.00,Wunderground v.1.15,2013-07-16 13:30:00,
2013-07-16 08:32:00,82.7,77.0,30.25,SSW,196,4.0,8.0,83,0.00,,,0.00,Wunderground v.1.15,2013-07-16 13:32:00,
2013-07-16 08:34:00,82.7,77.0,30.25,SSE,165,5.0,8.0,83,0.00,,,0.00,Wunderground v.1.15,2013-07-16 13:34:00,
2013-07-16 08:36:00,82.7,77.4,30.25,SSW,204,5.0,8.0,84,0.00,,,0.00,Wunderground v.1.15,2013-07-16 13:36:00,
2013-07-16 08:38:00,82.9,77.6,30.25,SSW,211,5.0,8.0,84,0.00,,,0.00,Wunderground v.1.15,2013-07-16 13:38:00,
2013-07-16 08:42:00,83.0,77.3,30.25,SSW,197,5.0,8.0,83,0.00,,,0.00,Wunderground v.1.15,2013-07-16 13:42:00,
2013-07-16 08:44:00,83.1,77.0,30.25,South,179,5.0,8.0,82,0.00,,,0.00,Wunderground v.1.15,2013-07-16 13:44:00,
2013-07-16 08:48:00,83.3,78.0,30.26,South,187,5.0,8.0,84,0.00,,,0.00,Wunderground v.1.15,2013-07-16 13:48:00,
2013-07-16 08:50:00,83.4,77.7,30.26,South,177,5.0,5.0,83,0.00,,,0.00,Wunderground v.1.15,2013-07-16 13:50:00,
2013-07-16 08:54:00,83.5,77.1,30.26,South,183,5.0,8.0,81,0.00,,,0.00,Wunderground v.1.15,2013-07-16 13:54:00,
2013-07-16 08:56:00,83.6,77.5,30.25,SSE,159,5.0,8.0,82,0.00,,,0.00,Wunderground v.1.15,2013-07-16 13:56:00,
2013-07-16 09:00:00,83.9,77.8,30.25,South,175,5.0,5.0,82,0.00,,,0.00,Wunderground v.1.15,2013-07-16 14:00:00,
2013-07-16 09:02:00,84.1,77.6,30.26,SW,221,5.0,8.0,81,0.00,,,0.00,Wunderground v.1.15,2013-07-16 14:02:00,
2013-07-16 09:04:00,84.1,78.0,30.26,SW,236,4.0,8.0,82,0.00,,,0.00,Wunderground v.1.15,2013-07-16 14:04:00,
2013-07-16 09:06:00,84.0,77.5,30.25,SW,215,4.0,8.0,81,0.00,,,0.00,Wunderground v.1.15,2013-07-16 14:06:00,
2013-07-16 09:08:00,84.0,77.9,30.26,SSE,166,4.0,8.0,82,0.00,,,0.00,Wunderground v.1.15,2013-07-16 14:08:00,
2013-07-16 09:12:00,84.2,77.7,30.25,SSW,198,4.0,8.0,81,0.00,,,0.00,Wunderground v.1.15,2013-07-16 14:12:00,
2013-07-16 09:14:00,84.2,77.0,30.25,SW,225,4.0,8.0,79,0.00,,,0.00,Wunderground v.1.15,2013-07-16 14:14:00,
2013-07-16 09:18:00,84.3,77.5,30.25,SW,215,4.0,8.0,80,0.00,,,0.00,Wunderground v.1.15,2013-07-16 14:18:00,
2013-07-16 09:24:00,84.8,77.6,30.25,WSW,249,3.0,8.0,79,0.00,,,0.00,Wunderground v.1.15,2013-07-16 14:24:00,
2013-07-16 09:28:00,84.7,76.7,30.25,South,176,4.0,8.0,77,0.00,,,0.00,Wunderground v.1.15,2013-07-16 14:28:00,
2013-07-16 09:30:00,84.8,77.2,30.25,SW,236,4.0,4.0,78,0.00,,,0.00,Wunderground v.1.15,2013-07-16 14:30:00,
2013-07-16 09:34:00,85.2,77.6,30.25,SSW,200,4.0,8.0,78,0.00,,,0.00,Wunderground v.1.15,2013-07-16 14:34:00,
2013-07-16 09:36:00,85.5,77.9,30.25,SSW,203,4.0,8.0,78,0.00,,,0.00,Wunderground v.1.15,2013-07-16 14:36:00,
2013-07-16 09:42:00,85.3,77.3,30.25,South,189,4.0,8.0,77,0.00,,,0.00,Wunderground v.1.15,2013-07-16 14:42:00,
2013-07-16 09:46:00,85.3,77.3,30.25,West,276,4.0,8.0,77,0.00,,,0.00,Wunderground v.1.15,2013-07-16 14:46:00,
2013-07-16 09:48:00,85.4,77.4,30.25,SSE,152,4.0,8.0,77,0.00,,,0.00,Wunderground v.1.15,2013-07-16 14:48:00,
2013-07-16 09:50:00,85.5,77.1,30.25,SE,143,4.0,4.0,76,0.00,,,0.00,Wunderground v.1.15,2013-07-16 14:50:00,
2013-07-16 09:52:00,85.7,77.7,30.25,SW,218,3.0,6.0,77,0.00,,,0.00,Wunderground v.1.15,2013-07-16 14:52:00,
2013-07-16 09:56:00,85.3,77.7,30.25,SW,225,4.0,9.0,78,0.00,,,0.00,Wunderground v.1.15,2013-07-16 14:56:00,
2013-07-16 09:58:00,85.1,77.5,30.25,SW,231,4.0,9.0,78,0.00,,,0.00,Wunderground v.1.15,2013-07-16 14:58:00,
2013-07-16 10:04:00,85.2,78.3,30.25,SW,222,3.0,8.0,80,0.00,,,0.00,Wunderground v.1.15,2013-07-16 15:04:00,
2013-07-16 10:06:00,85.1,76.3,30.25,SW,229,4.0,8.0,75,0.00,,,0.00,Wunderground v.1.15,2013-07-16 15:06:00,
2013-07-16 10:08:00,85.2,77.6,30.25,SW,217,4.0,8.0,78,0.00,,,0.00,Wunderground v.1.15,2013-07-16 15:08:00,
2013-07-16 10:12:00,85.6,77.9,30.25,South,188,3.0,4.0,78,0.00,,,0.00,Wunderground v.1.15,2013-07-16 15:12:00,
2013-07-16 10:14:00,85.6,77.2,30.25,WSW,253,3.0,8.0,76,0.00,,,0.00,Wunderground v.1.15,2013-07-16 15:14:00,
2013-07-16 10:16:00,85.6,77.6,30.25,WSW,250,3.0,8.0,77,0.00,,,0.00,Wunderground v.1.15,2013-07-16 15:16:00,
2013-07-16 10:18:00,85.5,76.7,30.25,WSW,246,3.0,8.0,75,0.00,,,0.00,Wunderground v.1.15,2013-07-16 15:18:00,
2013-07-16 10:20:00,85.3,76.9,30.25,SW,224,3.0,8.0,76,0.00,,,0.00,Wunderground v.1.15,2013-07-16 15:20:00,
2013-07-16 10:22:00,85.0,77.0,30.25,WSW,242,4.0,8.0,77,0.00,,,0.00,Wunderground v.1.15,2013-07-16 15:22:00,
2013-07-16 10:24:00,84.9,77.3,30.25,SSE,167,4.0,8.0,78,0.00,,,0.00,Wunderground v.1.15,2013-07-16 15:24:00,
2013-07-16 10:26:00,85.2,77.2,30.25,South,181,4.0,8.0,77,0.00,,,0.00,Wunderground v.1.15,2013-07-16 15:26:00,
2013-07-16 10:30:00,85.6,77.6,30.25,SW,214,4.0,8.0,77,0.00,,,0.00,Wunderground v.1.15,2013-07-16 15:30:00,
2013-07-16 10:32:00,85.6,76.8,30.25,West,259,4.0,8.0,75,0.00,,,0.00,Wunderground v.1.15,2013-07-16 15:32:00,
2013-07-16 10:34:00,85.5,76.7,30.25,SW,225,4.0,8.0,75,0.00,,,0.00,Wunderground v.1.15,2013-07-16 15:34:00,
2013-07-16 10:40:00,84.9,77.3,30.25,SSW,204,4.0,4.0,78,0.00,,,0.00,Wunderground v.1.15,2013-07-16 15:40:00,
2013-07-16 10:46:00,85.6,77.2,30.25,WSW,240,3.0,8.0,76,0.00,,,0.00,Wunderground v.1.15,2013-07-16 15:46:00,
2013-07-16 10:48:00,85.9,77.1,30.25,South,177,3.0,8.0,75,0.00,,,0.00,Wunderground v.1.15,2013-07-16 15:48:00,
2013-07-16 10:50:00,86.2,76.9,30.25,WSW,239,3.0,3.0,74,0.00,,,0.00,Wunderground v.1.15,2013-07-16 15:50:00,
2013-07-16 10:52:00,86.7,78.6,30.25,West,262,3.0,8.0,77,0.00,,,0.00,Wunderground v.1.15,2013-07-16 15:52:00,
2013-07-16 10:54:00,87.1,78.2,30.25,SSW,207,3.0,8.0,75,0.00,,,0.00,Wunderground v.1.15,2013-07-16 15:54:00,
2013-07-16 11:00:00,86.8,77.1,30.25,SW,227,4.0,8.0,73,0.00,,,0.00,Wunderground v.1.15,2013-07-16 16:00:00,
2013-07-16 11:02:00,86.6,75.6,30.25,WNW,297,4.0,8.0,70,0.00,,,0.00,Wunderground v.1.15,2013-07-16 16:02:00,
2013-07-16 11:06:00,87.1,76.5,30.25,SSW,206,4.0,8.0,71,0.00,,,0.00,Wunderground v.1.15,2013-07-16 16:06:00,
2013-07-16 11:08:00,87.4,76.8,30.25,WSW,243,3.0,8.0,71,0.00,,,0.00,Wunderground v.1.15,2013-07-16 16:08:00,
2013-07-16 11:12:00,87.1,77.0,30.25,SW,217,3.0,8.0,72,0.00,,,0.00,Wunderground v.1.15,2013-07-16 16:12:00,
2013-07-16 11:14:00,87.0,76.9,30.25,SW,231,3.0,8.0,72,0.00,,,0.00,Wunderground v.1.15,2013-07-16 16:14:00,
2013-07-16 11:16:00,87.1,77.0,30.25,SW,222,3.0,8.0,72,0.00,,,0.00,Wunderground v.1.15,2013-07-16 16:16:00,
2013-07-16 11:20:00,87.6,76.6,30.25,SSW,208,3.0,3.0,70,0.00,,,0.00,Wunderground v.1.15,2013-07-16 16:20:00,
2013-07-16 11:22:00,87.8,76.8,30.25,SW,214,3.0,8.0,70,0.00,,,0.00,Wunderground v.1.15,2013-07-16 16:22:00,
2013-07-16 11:24:00,87.9,77.7,30.25,WNW,287,3.0,8.0,72,0.00,,,0.00,Wunderground v.1.15,2013-07-16 16:24:00,
2013-07-16 11:26:00,88.1,77.5,30.25,SW,214,3.0,8.0,71,0.00,,,0.00,Wunderground v.1.15,2013-07-16 16:26:00,
2013-07-16 11:30:00,87.8,77.2,30.25,SW,220,3.0,8.0,71,0.00,,,0.00,Wunderground v.1.15,2013-07-16 16:30:00,
2013-07-16 11:32:00,87.7,78.0,30.24,SSW,200,3.0,8.0,73,0.00,,,0.00,Wunderground v.1.15,2013-07-16 16:32:00,
2013-07-16 11:34:00,87.5,76.9,30.25,SW,219,3.0,8.0,71,0.00,,,0.00,Wunderground v.1.15,2013-07-16 16:34:00,
2013-07-16 11:36:00,87.2,77.1,30.25,SW,226,4.0,8.0,72,0.00,,,0.00,Wunderground v.1.15,2013-07-16 16:36:00,
2013-07-16 11:40:00,87.0,76.9,30.25,SSW,192,3.0,8.0,72,0.00,,,0.00,Wunderground v.1.15,2013-07-16 16:40:00,
2013-07-16 11:44:00,87.2,76.2,30.25,SSW,193,3.0,8.0,70,0.00,,,0.00,Wunderground v.1.15,2013-07-16 16:44:00,
2013-07-16 11:46:00,87.5,75.6,30.25,SW,217,3.0,8.0,68,0.00,,,0.00,Wunderground v.1.15,2013-07-16 16:46:00,
2013-07-16 11:48:00,87.8,75.5,30.25,South,190,3.0,8.0,67,0.00,,,0.00,Wunderground v.1.15,2013-07-16 16:48:00,
2013-07-16 11:50:00,88.1,76.6,30.25,SSW,194,3.0,8.0,69,0.00,,,0.00,Wunderground v.1.15,2013-07-16 16:50:00,
2013-07-16 11:52:00,88.1,74.4,30.25,SSW,203,3.0,8.0,64,0.00,,,0.00,Wunderground v.1.15,2013-07-16 16:52:00,
2013-07-16 11:54:00,88.0,74.3,30.25,SSE,149,3.0,8.0,64,0.00,,,0.00,Wunderground v.1.15,2013-07-16 16:54:00,
2013-07-16 11:56:00,87.9,74.7,30.25,SSW,211,3.0,8.0,65,0.00,,,0.00,Wunderground v.1.15,2013-07-16 16:56:00,
2013-07-16 11:58:00,88.3,74.6,30.24,SSE,155,3.0,8.0,64,0.00,,,0.00,Wunderground v.1.15,2013-07-16 16:58:00,
2013-07-16 12:00:00,88.7,75.4,30.25,South,172,3.0,8.0,65,0.00,,,0.00,Wunderground v.1.15,2013-07-16 17:00:00,
2013-07-16 12:02:00,89.0,76.2,30.25,SW,231,2.0,8.0,66,0.00,,,0.00,Wunderground v.1.15,2013-07-16 17:02:00,
2013-07-16 12:04:00,88.9,75.1,30.25,South,187,2.0,8.0,64,0.00,,,0.00,Wunderground v.1.15,2013-07-16 17:04:00,
2013-07-16 12:06:00,89.3,75.5,30.24,SSW,204,2.0,8.0,64,0.00,,,0.00,Wunderground v.1.15,2013-07-16 17:06:00,
2013-07-16 12:08:00,89.7,76.4,30.24,WSW,252,2.0,8.0,65,0.00,,,0.00,Wunderground v.1.15,2013-07-16 17:08:00,
2013-07-16 12:10:00,90.1,76.7,30.24,SW,221,2.0,2.0,65,0.00,,,0.00,Wunderground v.1.15,2013-07-16 17:10:00,
2013-07-16 12:14:00,90.3,76.9,30.24,SW,231,1.0,8.0,65,0.00,,,0.00,Wunderground v.1.15,2013-07-16 17:14:00,
2013-07-16 12:16:00,89.6,75.8,30.25,SW,219,2.0,8.0,64,0.00,,,0.00,Wunderground v.1.15,2013-07-16 17:16:00,
2013-07-16 12:18:00,88.9,75.1,30.25,SSW,210,2.0,8.0,64,0.00,,,0.00,Wunderground v.1.15,2013-07-16 17:18:00,
2013-07-16 12:24:00,88.6,75.8,30.24,SW,234,3.0,4.0,66,0.00,,,0.00,Wunderground v.1.15,2013-07-16 17:24:00,
2013-07-16 12:26:00,88.5,75.7,30.24,South,181,3.0,5.0,66,0.00,,,0.00,Wunderground v.1.15,2013-07-16 17:26:00,
2013-07-16 12:30:00,89.0,75.7,30.24,SE,133,4.0,4.0,65,0.00,,,0.00,Wunderground v.1.15,2013-07-16 17:30:00,
2013-07-16 12:32:00,89.1,75.8,30.24,East,86,4.0,8.0,65,0.00,,,0.00,Wunderground v.1.15,2013-07-16 17:32:00,
2013-07-16 12:36:00,89.3,76.0,30.24,South,176,4.0,8.0,65,0.00,,,0.00,Wunderground v.1.15,2013-07-16 17:36:00,
2013-07-16 12:38:00,89.5,76.2,30.24,South,183,3.0,8.0,65,0.00,,,0.00,Wunderground v.1.15,2013-07-16 17:38:00,
2013-07-16 12:40:00,89.7,76.4,30.24,SSE,167,3.0,8.0,65,0.00,,,0.00,Wunderground v.1.15,2013-07-16 17:40:00,
2013-07-16 12:44:00,90.0,77.6,30.24,South,186,4.0,9.0,67,0.00,,,0.00,Wunderground v.1.15,2013-07-16 17:44:00,
2013-07-16 12:46:00,90.0,75.2,30.24,South,176,5.0,9.0,62,0.00,,,0.00,Wunderground v.1.15,2013-07-16 17:46:00,
2013-07-16 12:48:00,90.1,76.3,30.24,South,179,4.0,9.0,64,0.00,,,0.00,Wunderground v.1.15,2013-07-16 17:48:00,
2013-07-16 12:52:00,90.5,76.7,30.24,SSE,159,4.0,5.0,64,0.00,,,0.00,Wunderground v.1.15,2013-07-16 17:52:00,
2013-07-16 12:56:00,90.0,77.6,30.24,South,175,4.0,8.0,67,0.00,,,0.00,Wunderground v.1.15,2013-07-16 17:56:00,
2013-07-16 12:58:00,89.9,77.5,30.24,SSE,163,5.0,8.0,67,0.00,,,0.00,Wunderground v.1.15,2013-07-16 17:58:00,
2013-07-16 13:00:00,89.9,77.0,30.24,South,181,5.0,5.0,66,0.00,,,0.00,Wunderground v.1.15,2013-07-16 18:00:00,
2013-07-16 13:02:00,89.9,77.5,30.24,SSW,194,5.0,8.0,67,0.00,,,0.00,Wunderground v.1.15,2013-07-16 18:02:00,
2013-07-16 13:04:00,89.9,77.0,30.24,SSE,160,5.0,8.0,66,0.00,,,0.00,Wunderground v.1.15,2013-07-16 18:04:00,
2013-07-16 13:06:00,89.9,77.9,30.24,SSW,194,5.0,8.0,68,0.00,,,0.00,Wunderground v.1.15,2013-07-16 18:06:00,
2013-07-16 13:10:00,89.7,76.4,30.24,South,174,5.0,8.0,65,0.00,,,0.00,Wunderground v.1.15,2013-07-16 18:10:00,
2013-07-16 13:12:00,89.7,76.8,30.23,WSW,248,4.0,8.0,66,0.00,,,0.00,Wunderground v.1.15,2013-07-16 18:12:00,
2013-07-16 13:14:00,89.8,75.5,30.24,South,174,4.0,8.0,63,0.00,,,0.00,Wunderground v.1.15,2013-07-16 18:14:00,
2013-07-16 13:16:00,89.9,76.6,30.24,South,181,4.0,8.0,65,0.00,,,0.00,Wunderground v.1.15,2013-07-16 18:16:00,
2013-07-16 13:20:00,89.8,76.9,30.24,SSE,167,4.0,8.0,66,0.00,,,0.00,Wunderground v.1.15,2013-07-16 18:20:00,
2013-07-16 13:22:00,89.7,76.8,30.23,SW,229,4.0,8.0,66,0.00,,,0.00,Wunderground v.1.15,2013-07-16 18:22:00,
2013-07-16 13:24:00,89.5,77.1,30.23,SSW,204,5.0,8.0,67,0.00,,,0.00,Wunderground v.1.15,2013-07-16 18:24:00,
2013-07-16 13:28:00,89.5,75.7,30.23,SW,229,4.0,8.0,64,0.00,,,0.00,Wunderground v.1.15,2013-07-16 18:28:00,
2013-07-16 13:30:00,89.7,77.3,30.23,SSE,159,4.0,8.0,67,0.00,,,0.00,Wunderground v.1.15,2013-07-16 18:30:00,
2013-07-16 13:32:00,90.0,77.1,30.23,SSW,194,4.0,8.0,66,0.00,,,0.00,Wunderground v.1.15,2013-07-16 18:32:00,
2013-07-16 13:38:00,90.3,76.5,30.23,SSE,163,4.0,8.0,64,0.00,,,0.00,Wunderground v.1.15,2013-07-16 18:38:00,
2013-07-16 13:40:00,90.5,76.2,30.23,ESE,122,3.0,8.0,63,0.00,,,0.00,Wunderground v.1.15,2013-07-16 18:40:00,
2013-07-16 13:42:00,90.6,76.7,30.23,WSW,240,3.0,8.0,64,0.00,,,0.00,Wunderground v.1.15,2013-07-16 18:42:00,
2013-07-16 13:46:00,90.4,76.1,30.23,South,183,3.0,8.0,63,0.00,,,0.00,Wunderground v.1.15,2013-07-16 18:46:00,
2013-07-16 13:48:00,90.7,76.8,30.23,SE,146,3.0,8.0,64,0.00,,,0.00,Wunderground v.1.15,2013-07-16 18:48:00,
2013-07-16 13:52:00,91.3,77.4,30.23,SSW,203,3.0,8.0,64,0.00,,,0.00,Wunderground v.1.15,2013-07-16 18:52:00,
2013-07-16 13:54:00,91.5,77.1,30.23,South,179,3.0,8.0,63,0.00,,,0.00,Wunderground v.1.15,2013-07-16 18:54:00,
2013-07-16 13:56:00,91.6,76.7,30.23,WSW,255,3.0,8.0,62,0.00,,,0.00,Wunderground v.1.15,2013-07-16 18:56:00,
2013-07-16 14:02:00,91.3,76.5,30.23,South,190,3.0,8.0,62,0.00,,,0.00,Wunderground v.1.15,2013-07-16 19:02:00,
2013-07-16 14:04:00,91.2,77.8,30.23,ESE,117,3.0,8.0,65,0.00,,,0.00,Wunderground v.1.15,2013-07-16 19:04:00,
2013-07-16 14:06:00,91.4,78.0,30.23,South,173,3.0,8.0,65,0.00,,,0.00,Wunderground v.1.15,2013-07-16 19:06:00,
2013-07-16 14:14:00,91.2,77.3,30.22,South,188,5.0,8.0,64,0.00,,,0.00,Wunderground v.1.15,2013-07-16 19:14:00,
2013-07-16 14:16:00,91.3,77.4,30.22,South,190,5.0,8.0,64,0.00,,,0.00,Wunderground v.1.15,2013-07-16 19:16:00,
2013-07-16 14:20:00,91.0,77.6,30.22,SW,226,5.0,5.0,65,0.00,,,0.00,Wunderground v.1.15,2013-07-16 19:20:00,
2013-07-16 14:22:00,90.9,77.0,30.22,SSE,158,5.0,8.0,64,0.00,,,0.00,Wunderground v.1.15,2013-07-16 19:22:00,
2013-07-16 14:26:00,91.0,78.1,30.22,South,184,6.0,8.0,66,0.00,,,0.00,Wunderground v.1.15,2013-07-16 19:26:00,
2013-07-16 14:28:00,91.2,77.3,30.22,South,191,5.0,8.0,64,0.00,,,0.00,Wunderground v.1.15,2013-07-16 19:28:00,
2013-07-16 14:30:00,91.4,77.5,30.22,SW,229,4.0,8.0,64,0.00,,,0.00,Wunderground v.1.15,2013-07-16 19:30:00,
2013-07-16 14:32:00,91.3,76.9,30.22,SSW,211,4.0,8.0,63,0.00,,,0.00,Wunderground v.1.15,2013-07-16 19:32:00,
2013-07-16 14:34:00,91.3,76.9,30.22,South,180,3.0,8.0,63,0.00,,,0.00,Wunderground v.1.15,2013-07-16 19:34:00,
2013-07-16 14:38:00,91.3,78.3,30.22,ESE,116,3.0,8.0,66,0.00,,,0.00,Wunderground v.1.15,2013-07-16 19:38:00,
2013-07-16 14:42:00,91.0,78.1,30.22,SSW,204,4.0,8.0,66,0.00,,,0.00,Wunderground v.1.15,2013-07-16 19:42:00,
2013-07-16 14:44:00,90.7,78.2,30.22,South,179,4.0,8.0,67,0.00,,,0.00,Wunderground v.1.15,2013-07-16 19:44:00,
2013-07-16 14:48:00,90.2,77.3,30.22,South,179,4.0,8.0,66,0.00,,,0.00,Wunderground v.1.15,2013-07-16 19:48:00,
2013-07-16 14:50:00,89.8,76.5,30.22,SSW,208,4.0,8.0,65,0.00,,,0.00,Wunderground v.1.15,2013-07-16 19:50:00,
2013-07-16 14:52:00,89.5,76.6,30.22,South,180,4.0,8.0,66,0.00,,,0.00,Wunderground v.1.15,2013-07-16 19:52:00,
2013-07-16 14:54:00,89.7,78.2,30.22,SSW,210,5.0,8.0,69,0.00,,,0.00,Wunderground v.1.15,2013-07-16 19:54:00,
2013-07-16 14:58:00,89.9,77.5,30.22,WSW,252,6.0,8.0,67,0.00,,,0.00,Wunderground v.1.15,2013-07-16 19:58:00,
2013-07-16 15:04:00,90.2,77.8,30.22,SSW,197,6.0,8.0,67,0.00,,,0.00,Wunderground v.1.15,2013-07-16 20:04:00,
2013-07-16 15:06:00,90.3,77.4,30.22,SSE,155,6.0,8.0,66,0.00,,,0.00,Wunderground v.1.15,2013-07-16 20:06:00,
2013-07-16 15:08:00,90.4,77.5,30.22,SW,218,6.0,8.0,66,0.00,,,0.00,Wunderground v.1.15,2013-07-16 20:08:00,
2013-07-16 15:10:00,90.5,77.6,30.22,SSW,210,5.0,5.0,66,0.00,,,0.00,Wunderground v.1.15,2013-07-16 20:10:00,
2013-07-16 15:12:00,90.4,76.6,30.22,SSW,198,5.0,6.0,64,0.00,,,0.00,Wunderground v.1.15,2013-07-16 20:12:00,
2013-07-16 15:14:00,90.2,76.4,30.22,SSW,197,5.0,8.0,64,0.00,,,0.00,Wunderground v.1.15,2013-07-16 20:14:00,
2013-07-16 15:16:00,90.3,77.4,30.22,South,186,4.0,8.0,66,0.00,,,0.00,Wunderground v.1.15,2013-07-16 20:16:00,
2013-07-16 15:18:00,90.2,77.3,30.22,South,188,4.0,8.0,66,0.00,,,0.00,Wunderground v.1.15,2013-07-16 20:18:00,
2013-07-16 15:20:00,90.1,77.2,30.22,South,188,5.0,8.0,66,0.00,,,0.00,Wunderground v.1.15,2013-07-16 20:20:00,
2013-07-16 15:24:00,89.9,77.0,30.22,SSE,152,4.0,8.0,66,0.00,,,0.00,Wunderground v.1.15,2013-07-16 20:24:00,
2013-07-16 15:26:00,90.2,76.4,30.21,SE,145,4.0,8.0,64,0.00,,,0.00,Wunderground v.1.15,2013-07-16 20:26:00,
2013-07-16 15:28:00,90.4,77.0,30.21,South,185,4.0,8.0,65,0.00,,,0.00,Wunderground v.1.15,2013-07-16 20:28:00,
2013-07-16 15:32:00,90.1,77.2,30.21,SE,144,4.0,8.0,66,0.00,,,0.00,Wunderground v.1.15,2013-07-16 20:32:00,
2013-07-16 15:40:00,90.5,76.7,30.21,South,177,5.0,5.0,64,0.00,,,0.00,Wunderground v.1.15,2013-07-16 20:40:00,
2013-07-16 15:42:00,90.8,76.5,30.21,SSW,198,4.0,8.0,63,0.00,,,0.00,Wunderground v.1.15,2013-07-16 20:42:00,
2013-07-16 15:44:00,91.0,77.6,30.21,South,190,4.0,8.0,65,0.00,,,0.00,Wunderground v.1.15,2013-07-16 20:44:00,
2013-07-16 15:48:00,91.2,77.3,30.21,South,179,3.0,8.0,64,0.00,,,0.00,Wunderground v.1.15,2013-07-16 20:48:00,
2013-07-16 15:50:00,91.4,78.4,30.21,SSW,212,3.0,8.0,66,0.00,,,0.00,Wunderground v.1.15,2013-07-16 20:50:00,
2013-07-16 15:52:00,91.2,77.3,30.21,South,169,4.0,8.0,64,0.00,,,0.00,Wunderground v.1.15,2013-07-16 20:52:00,
2013-07-16 15:54:00,91.2,78.2,30.21,SSW,209,4.0,8.0,66,0.00,,,0.00,Wunderground v.1.15,2013-07-16 20:54:00,
2013-07-16 15:58:00,91.6,77.7,30.21,SSE,158,4.0,8.0,64,0.00,,,0.00,Wunderground v.1.15,2013-07-16 20:58:00,
2013-07-16 16:00:00,91.8,76.9,30.21,South,183,4.0,4.0,62,0.00,,,0.00,Wunderground v.1.15,2013-07-16 21:00:00,
2013-07-16 16:06:00,92.0,77.1,30.21,SSW,198,3.0,8.0,62,0.00,,,0.00,Wunderground v.1.15,2013-07-16 21:06:00,
2013-07-16 16:08:00,91.8,77.9,30.21,South,190,3.0,8.0,64,0.00,,,0.00,Wunderground v.1.15,2013-07-16 21:08:00,
2013-07-16 16:12:00,91.1,78.2,30.21,South,188,3.0,8.0,66,0.00,,,0.00,Wunderground v.1.15,2013-07-16 21:12:00,
2013-07-16 16:16:00,90.6,77.2,30.21,SSW,204,3.0,8.0,65,0.00,,,0.00,Wunderground v.1.15,2013-07-16 21:16:00,
2013-07-16 16:18:00,90.6,76.3,30.21,South,185,3.0,8.0,63,0.00,,,0.00,Wunderground v.1.15,2013-07-16 21:18:00,
2013-07-16 16:22:00,90.9,75.6,30.20,SW,214,4.0,8.0,61,0.00,,,0.00,Wunderground v.1.15,2013-07-16 21:22:00,
2013-07-16 16:24:00,90.8,76.9,30.20,SW,229,4.0,8.0,64,0.00,,,0.00,Wunderground v.1.15,2013-07-16 21:24:00,
2013-07-16 16:26:00,90.8,76.5,30.21,WSW,242,4.0,8.0,63,0.00,,,0.00,Wunderground v.1.15,2013-07-16 21:26:00,
2013-07-16 16:32:00,90.9,77.0,30.20,SSW,197,4.0,8.0,64,0.00,,,0.00,Wunderground v.1.15,2013-07-16 21:32:00,
2013-07-16 16:34:00,91.3,76.5,30.20,SSE,167,4.0,8.0,62,0.00,,,0.00,Wunderground v.1.15,2013-07-16 21:34:00,
2013-07-16 16:38:00,91.6,76.2,30.20,WSW,248,5.0,8.0,61,0.00,,,0.00,Wunderground v.1.15,2013-07-16 21:38:00,
2013-07-16 16:40:00,91.5,76.6,30.20,SW,218,4.0,8.0,62,0.00,,,0.00,Wunderground v.1.15,2013-07-16 21:40:00,
2013-07-16 16:42:00,91.3,77.4,30.21,SSW,208,5.0,8.0,64,0.00,,,0.00,Wunderground v.1.15,2013-07-16 21:42:00,
2013-07-16 16:44:00,91.0,76.7,30.21,SSW,211,5.0,8.0,63,0.00,,,0.00,Wunderground v.1.15,2013-07-16 21:44:00,
2013-07-16 16:46:00,90.8,76.5,30.21,SW,225,5.0,8.0,63,0.00,,,0.00,Wunderground v.1.15,2013-07-16 21:46:00,
2013-07-16 16:50:00,90.8,76.5,30.20,SSW,195,5.0,8.0,63,0.00,,,0.00,Wunderground v.1.15,2013-07-16 21:50:00,
2013-07-16 16:52:00,90.9,76.6,30.20,SSW,200,5.0,8.0,63,0.00,,,0.00,Wunderground v.1.15,2013-07-16 21:52:00,
2013-07-16 16:56:00,91.1,75.8,30.20,SSW,194,4.0,8.0,61,0.00,,,0.00,Wunderground v.1.15,2013-07-16 21:56:00,
2013-07-16 16:58:00,91.0,76.2,30.20,SW,215,5.0,8.0,62,0.00,,,0.00,Wunderground v.1.15,2013-07-16 21:58:00,
2013-07-16 17:00:00,91.0,76.7,30.20,SSW,198,5.0,5.0,63,0.00,,,0.00,Wunderground v.1.15,2013-07-16 22:00:00,
2013-07-16 17:02:00,90.8,75.5,30.20,West,271,5.0,8.0,61,0.00,,,0.00,Wunderground v.1.15,2013-07-16 22:02:00,
2013-07-16 17:08:00,91.1,77.2,30.20,South,183,4.0,8.0,64,0.00,,,0.00,Wunderground v.1.15,2013-07-16 22:08:00,
2013-07-16 17:12:00,91.1,75.3,30.20,South,174,5.0,8.0,60,0.00,,,0.00,Wunderground v.1.15,2013-07-16 22:12:00,
2013-07-16 17:14:00,91.1,76.7,30.20,South,184,5.0,8.0,63,0.00,,,0.00,Wunderground v.1.15,2013-07-16 22:14:00,
2013-07-16 17:16:00,91.1,76.7,30.20,WSW,252,5.0,8.0,63,0.00,,,0.00,Wunderground v.1.15,2013-07-16 22:16:00,
2013-07-16 17:22:00,91.2,76.8,30.20,WSW,256,5.0,8.0,63,0.00,,,0.00,Wunderground v.1.15,2013-07-16 22:22:00,
2013-07-16 17:24:00,91.2,76.8,30.20,SW,232,5.0,8.0,63,0.00,,,0.00,Wunderground v.1.15,2013-07-16 22:24:00,
2013-07-16 17:26:00,91.3,76.0,30.20,SW,226,4.0,8.0,61,0.00,,,0.00,Wunderground v.1.15,2013-07-16 22:26:00,
2013-07-16 17:30:00,90.9,76.6,30.20,SSW,198,3.0,8.0,63,0.00,,,0.00,Wunderground v.1.15,2013-07-16 22:30:00,
2013-07-16 17:34:00,91.2,77.3,30.20,SW,225,3.0,8.0,64,0.00,,,0.00,Wunderground v.1.15,2013-07-16 22:34:00,
2013-07-16 17:36:00,91.1,77.2,30.20,SW,224,3.0,8.0,64,0.00,,,0.00,Wunderground v.1.15,2013-07-16 22:36:00,
2013-07-16 17:40:00,91.2,77.3,30.19,SW,217,3.0,8.0,64,0.00,,,0.00,Wunderground v.1.15,2013-07-16 22:40:00,
2013-07-16 17:42:00,91.4,78.0,30.19,SSW,207,3.0,8.0,65,0.00,,,0.00,Wunderground v.1.15,2013-07-16 22:42:00,
2013-07-16 17:44:00,91.5,78.1,30.19,SW,232,3.0,8.0,65,0.00,,,0.00,Wunderground v.1.15,2013-07-16 22:44:00,
2013-07-16 17:46:00,91.6,77.7,30.19,South,180,4.0,8.0,64,0.00,,,0.00,Wunderground v.1.15,2013-07-16 22:46:00,
2013-07-16 17:48:00,91.6,77.2,30.19,SSW,204,4.0,8.0,63,0.00,,,0.00,Wunderground v.1.15,2013-07-16 22:48:00,
2013-07-16 17:52:00,91.6,77.7,30.19,South,170,4.0,8.0,64,0.00,,,0.00,Wunderground v.1.15,2013-07-16 22:52:00,
2013-07-16 17:54:00,91.6,76.7,30.19,SSW,200,5.0,8.0,62,0.00,,,0.00,Wunderground v.1.15,2013-07-16 22:54:00,
2013-07-16 17:56:00,91.6,77.2,30.19,South,176,4.0,8.0,63,0.00,,,0.00,Wunderground v.1.15,2013-07-16 22:56:00,
2013-07-16 18:00:00,91.6,77.2,30.19,SSW,198,5.0,5.0,63,0.00,,,0.00,Wunderground v.1.15,2013-07-16 23:00:00,
2013-07-16 18:02:00,91.7,77.3,30.19,SSW,197,4.0,8.0,63,0.00,,,0.00,Wunderground v.1.15,2013-07-16 23:02:00,
2013-07-16 18:06:00,91.7,76.8,30.19,SSE,160,4.0,8.0,62,0.00,,,0.00,Wunderground v.1.15,2013-07-16 23:06:00,
2013-07-16 18:10:00,91.8,77.4,30.19,East,98,4.0,4.0,63,0.00,,,0.00,Wunderground v.1.15,2013-07-16 23:10:00,
2013-07-16 18:14:00,91.9,79.4,30.19,SW,218,3.0,8.0,67,0.00,,,0.00,Wunderground v.1.15,2013-07-16 23:14:00,
2013-07-16 18:16:00,92.3,79.3,30.19,East,94,3.0,8.0,66,0.00,,,0.00,Wunderground v.1.15,2013-07-16 23:16:00,
2013-07-16 18:18:00,92.4,77.0,30.20,South,187,3.0,8.0,61,0.00,,,0.00,Wunderground v.1.15,2013-07-16 23:18:00,
2013-07-16 18:20:00,92.2,77.3,30.19,SSE,166,3.0,3.0,62,0.00,,,0.00,Wunderground v.1.15,2013-07-16 23:20:00,
2013-07-16 18:22:00,92.0,77.1,30.19,SSE,167,3.0,4.0,62,0.00,,,0.00,Wunderground v.1.15,2013-07-16 23:22:00,
2013-07-16 18:26:00,91.6,77.7,30.19,SSW,203,4.0,8.0,64,0.00,,,0.00,Wunderground v.1.15,2013-07-16 23:26:00,
2013-07-16 18:28:00,91.6,78.2,30.19,South,169,4.0,8.0,65,0.00,,,0.00,Wunderground v.1.15,2013-07-16 23:28:00,
2013-07-16 18:32:00,91.8,77.9,30.19,South,179,3.0,8.0,64,0.00,,,0.00,Wunderground v.1.15,2013-07-16 23:32:00,
2013-07-16 18:34:00,91.5,77.6,30.19,South,170,4.0,8.0,64,0.00,,,0.00,Wunderground v.1.15,2013-07-16 23:34:00,
2013-07-16 18:36:00,91.2,78.2,30.19,South,177,4.0,8.0,66,0.00,,,0.00,Wunderground v.1.15,2013-07-16 23:36:00,
2013-07-16 18:38:00,91.1,77.7,30.20,East,101,4.0,8.0,65,0.00,,,0.00,Wunderground v.1.15,2013-07-16 23:38:00,
2013-07-16 18:42:00,91.1,78.2,30.20,SSE,165,3.0,8.0,66,0.00,,,0.00,Wunderground v.1.15,2013-07-16 23:42:00,
2013-07-16 18:44:00,91.1,78.2,30.20,SSW,199,3.0,8.0,66,0.00,,,0.00,Wunderground v.1.15,2013-07-16 23:44:00,
2013-07-16 18:46:00,90.8,77.9,30.20,South,176,3.0,8.0,66,0.00,,,0.00,Wunderground v.1.15,2013-07-16 23:46:00,
2013-07-16 18:48:00,90.5,78.0,30.20,ESE,121,3.0,8.0,67,0.00,,,0.00,Wunderground v.1.15,2013-07-16 23:48:00,
2013-07-16 18:50:00,90.5,78.5,30.20,SSW,208,3.0,3.0,68,0.00,,,0.00,Wunderground v.1.15,2013-07-16 23:50:00,
2013-07-16 18:52:00,90.6,78.1,30.20,South,188,2.0,8.0,67,0.00,,,0.00,Wunderground v.1.15,2013-07-16 23:52:00,
2013-07-16 18:54:00,90.8,78.8,30.20,SSW,194,2.0,8.0,68,0.00,,,0.00,Wunderground v.1.15,2013-07-16 23:54:00,
2013-07-16 18:56:00,90.8,78.3,30.20,South,180,2.0,8.0,67,0.00,,,0.00,Wunderground v.1.15,2013-07-16 23:56:00,
2013-07-16 19:00:00,90.6,78.6,30.20,SSW,193,1.0,8.0,68,0.00,,,0.00,Wunderground v.1.15,2013-07-17 00:00:00,
2013-07-16 19:02:00,90.5,78.5,30.20,South,190,1.0,8.0,68,0.00,,,0.00,Wunderground v.1.15,2013-07-17 00:02:00,
2013-07-16 19:06:00,90.4,77.9,30.20,SE,124,1.0,8.0,67,0.00,,,0.00,Wunderground v.1.15,2013-07-17 00:06:00,
2013-07-16 19:08:00,90.3,77.8,30.20,South,188,2.0,8.0,67,0.00,,,0.00,Wunderground v.1.15,2013-07-17 00:08:00,
2013-07-16 19:10:00,90.2,77.8,30.20,South,174,2.0,8.0,67,0.00,,,0.00,Wunderground v.1.15,2013-07-17 00:10:00,
2013-07-16 19:14:00,90.1,78.1,30.20,South,173,2.0,8.0,68,0.00,,,0.00,Wunderground v.1.15,2013-07-17 00:14:00,
2013-07-16 19:16:00,90.2,78.2,30.20,SE,146,2.0,8.0,68,0.00,,,0.00,Wunderground v.1.15,2013-07-17 00:16:00,
2013-07-16 19:18:00,90.0,78.0,30.20,ESE,121,1.0,8.0,68,0.00,,,0.00,Wunderground v.1.15,2013-07-17 00:18:00,
2013-07-16 19:20:00,89.7,78.2,30.20,SSE,158,1.0,8.0,69,0.00,,,0.00,Wunderground v.1.15,2013-07-17 00:20:00,
2013-07-16 19:24:00,88.7,78.1,30.20,SE,143,1.0,8.0,71,0.00,,,0.00,Wunderground v.1.15,2013-07-17 00:24:00,
2013-07-16 19:26:00,88.4,78.2,30.20,ESE,105,1.0,8.0,72,0.00,,,0.00,Wunderground v.1.15,2013-07-17 00:26:00,
2013-07-16 19:30:00,88.4,78.2,30.20,SSW,195,1.0,1.0,72,0.00,,,0.00,Wunderground v.1.15,2013-07-17 00:30:00,
2013-07-16 19:32:00,88.6,78.8,30.20,ESE,113,1.0,8.0,73,0.00,,,0.00,Wunderground v.1.15,2013-07-17 00:32:00,
2013-07-16 19:36:00,88.8,78.6,30.20,SE,134,1.0,8.0,72,0.00,,,0.00,Wunderground v.1.15,2013-07-17 00:36:00,
2013-07-16 19:38:00,88.8,78.2,30.20,SSW,205,1.0,8.0,71,0.00,,,0.00,Wunderground v.1.15,2013-07-17 00:38:00,
2013-07-16 19:42:00,88.8,78.6,30.20,South,188,1.0,8.0,72,0.00,,,0.00,Wunderground v.1.15,2013-07-17 00:42:00,
2013-07-16 19:44:00,88.8,78.6,30.20,South,185,1.0,8.0,72,0.00,,,0.00,Wunderground v.1.15,2013-07-17 00:44:00,
2013-07-16 19:46:00,88.8,78.6,30.20,SE,131,0.0,8.0,72,0.00,,,0.00,Wunderground v.1.15,2013-07-17 00:46:00,
2013-07-16 19:50:00,88.6,78.4,30.20,SSW,207,0.0,8.0,72,0.00,,,0.00,Wunderground v.1.15,2013-07-17 00:50:00,
2013-07-16 19:52:00,88.6,78.4,30.20,South,174,0.0,8.0,72,0.00,,,0.00,Wunderground v.1.15,2013-07-17 00:52:00,
2013-07-16 19:56:00,88.5,78.7,30.21,WSW,242,0.0,8.0,73,0.00,,,0.00,Wunderground v.1.15,2013-07-17 00:56:00,
2013-07-16 19:58:00,88.4,78.6,30.20,SW,225,0.0,8.0,73,0.00,,,0.00,Wunderground v.1.15,2013-07-17 00:58:00,
2013-07-16 20:00:00,88.2,78.4,30.20,ESE,121,0.0,8.0,73,0.00,,,0.00,Wunderground v.1.15,2013-07-17 01:00:00,
2013-07-16 20:04:00,86.9,78.0,30.20,SE,136,0.0,8.0,75,0.00,,,0.00,Wunderground v.1.15,2013-07-17 01:04:00,
2013-07-16 20:08:00,86.7,78.2,30.21,South,169,0.0,8.0,76,0.00,,,0.00,Wunderground v.1.15,2013-07-17 01:08:00,
2013-07-16 20:10:00,86.7,78.2,30.20,South,170,0.0,8.0,76,0.00,,,0.00,Wunderground v.1.15,2013-07-17 01:10:00,
2013-07-16 20:12:00,86.5,78.0,30.20,South,170,0.0,8.0,76,0.00,,,0.00,Wunderground v.1.15,2013-07-17 01:12:00,
2013-07-16 20:14:00,86.2,77.7,30.20,SE,136,0.0,8.0,76,0.00,,,0.00,Wunderground v.1.15,2013-07-17 01:14:00,
2013-07-16 20:18:00,85.1,77.5,30.20,SE,132,0.0,8.0,78,0.00,,,0.00,Wunderground v.1.15,2013-07-17 01:18:00,
2013-07-16 20:20:00,84.7,77.5,30.20,SE,127,1.0,8.0,79,0.00,,,0.00,Wunderground v.1.15,2013-07-17 01:20:00,
2013-07-16 20:22:00,84.2,77.4,30.20,SE,131,1.0,8.0,80,0.00,,,0.00,Wunderground v.1.15,2013-07-17 01:22:00,
2013-07-16 20:24:00,83.7,77.2,30.20,SE,131,2.0,8.0,81,0.00,,,0.00,Wunderground v.1.15,2013-07-17 01:24:00,
2013-07-16 20:26:00,83.4,77.3,30.20,SE,127,2.0,8.0,82,0.00,,,0.00,Wunderground v.1.15,2013-07-17 01:26:00,
2013-07-16 20:28:00,83.2,77.5,30.20,SE,128,2.0,8.0,83,0.00,,,0.00,Wunderground v.1.15,2013-07-17 01:28:00,
2013-07-16 20:30:00,82.9,77.2,30.20,SE,139,2.0,2.0,83,0.00,,,0.00,Wunderground v.1.15,2013-07-17 01:30:00,
2013-07-16 20:34:00,82.6,77.3,30.20,SE,131,1.0,8.0,84,0.00,,,0.00,Wunderground v.1.15,2013-07-17 01:34:00,
2013-07-16 20:56:00,81.4,76.8,30.21,ESE,120,1.0,8.0,86,0.00,,,0.00,Wunderground v.1.15,2013-07-17 01:56:00,